Philip, SD

10:06 AM MST on February 12, 2016 (GMT -0700)
Philip

Weather History for KPHP - March, 2012

Change the Weather History Date:

Monday, March 26, 2012

  Actual Average Record
Temperature  
Mean Temperature 59 °F 39 °F  
Max Temperature 83 °F 52 °F 83 °F (2012)
Min Temperature 35 °F 25 °F 1 °F (1964)
Degree Days  
Heating Degree Days 6 26  
Month to date heating degree days 466 811  
Since 1 July heating degree days 5172 6176  
Cooling Degree Days 0 0  
Month to date cooling degree days 0 0  
Year to date cooling degree days 0 0  
Growing Degree Days 8 (Base 50)    
Moisture  
Dew Point 41 °F    
Average Humidity 59    
Maximum Humidity 92    
Minimum Humidity 26    
Precipitation  
Precipitation 0.00 in 0.04 in 0.28 in (1975)
Month to date precipitation 0.03 1.07  
Year to date precipitation 0.75 1.85  
Sea Level Pressure  
Sea Level Pressure 29.63 in    
Wind  
Wind Speed 13 mph (ESE)    
Max Wind Speed 47 mph    
Max Gust Speed 61 mph    
Visibility 10 miles    
Events      
T = Trace of Precipitation, MM = Missing Value Source: NWS Daily Summary

Daily Weather History Graph

Daily Weather History Graph

Search for Another Location

Airport or City:

Trip Planner

Search our weather history database for the weather conditions in past years. The results will help you decide how hot, cold, wet, or windy it might be!

Date:

Astronomy

Mar. 26, 2012 Rise Set
Actual Time 6:37 AM MDT 7:06 PM MDT
Civil Twilight 6:08 AM MDT 7:35 PM MDT
Nautical Twilight 5:34 AM MDT 8:10 PM MDT
Astronomical Twilight 4:59 AM MDT 8:45 PM MDT
Moon 8:18 AM MDT (3/26) 11:29 PM MDT (3/26)
Length of Visible Light 13h 27m
Length of Day
12h 29m
Waxing Crescent, 15% of the Moon is Illuminated
Mar 26
Waxing Crescent
Mar 30
First Quarter
Apr 6
Full
Apr 13
Last Quarter
Apr 21
New

Hourly Weather History & Observations

Time (MDT) Temp. Windchill Dew Point Humidity Pressure Visibility Wind Dir Wind Speed Gust Speed Precip Events Conditions
12:55 AM 37.9 °F 32.7 °F 33.1 °F 83% 30.00 in 10.0 mi East 6.9 mph - N/A   Clear
1:55 AM 37.9 °F 31.5 °F 34.0 °F 86% 29.97 in 10.0 mi East 9.2 mph - N/A   Clear
2:55 AM 37.0 °F 31.0 °F 34.0 °F 89% 29.94 in 10.0 mi East 8.1 mph - N/A   Mostly Cloudy
3:55 AM 36.0 °F 28.5 °F 33.1 °F 89% 29.90 in 10.0 mi East 10.4 mph - N/A   Clear
4:53 AM 35.6 °F 29.2 °F 33.8 °F 93% 29.85 in 10.0 mi East 8.1 mph - N/A   Mostly Cloudy
4:55 AM 37.0 °F 31.0 °F 34.0 °F 89% 29.88 in 10.0 mi East 8.1 mph - N/A   Mostly Cloudy
5:36 AM 39.2 °F 32.0 °F 35.6 °F 87% 29.83 in 10.0 mi East 11.5 mph - N/A   Overcast
5:55 AM 39.9 °F 33.4 °F 36.0 °F 86% 29.85 in 10.0 mi East 10.4 mph - N/A   Overcast
6:55 AM 41.0 °F 34.3 °F 37.9 °F 89% 29.81 in 10.0 mi East 11.5 mph - N/A   Overcast
7:55 AM 45.0 °F 39.7 °F 41.0 °F 86% 29.78 in 10.0 mi East 10.4 mph - N/A   Overcast
8:55 AM 46.9 °F - 43.0 °F 86% 29.75 in 10.0 mi ESE 12.7 mph - N/A   Overcast
9:55 AM 48.9 °F - 44.1 °F 83% 29.73 in 10.0 mi ESE 11.5 mph - N/A   Overcast
10:35 AM 51.8 °F - 44.6 °F 76% 29.69 in 10.0 mi East 9.2 mph - N/A   Overcast
10:55 AM 52.0 °F - 46.0 °F 80% 29.69 in 10.0 mi ESE 10.4 mph - N/A   Overcast
11:55 AM 55.0 °F - 46.9 °F 74% 29.65 in 10.0 mi ESE 10.4 mph - N/A   Overcast
12:28 PM 57.2 °F - 48.2 °F 72% 29.61 in 10.0 mi ESE 9.2 mph - N/A   Overcast
12:55 PM 62.1 °F - 51.1 °F 67% 29.58 in 10.0 mi ESE 11.5 mph - N/A   Overcast
1:16 PM 62.6 °F - 51.8 °F 68% 29.56 in 10.0 mi ESE 11.5 mph 18.4 mph N/A   Scattered Clouds
1:55 PM 69.1 °F - 52.0 °F 54% 29.50 in 10.0 mi SE 13.8 mph - N/A   Clear
2:55 PM 73.9 °F - 53.1 °F 48% 29.42 in 10.0 mi East 15.0 mph 19.6 mph N/A   Clear
3:55 PM 78.1 °F - 52.0 °F 40% 29.37 in 10.0 mi SE 12.7 mph 20.7 mph N/A   Clear
4:55 PM 79.0 °F - 50.0 °F 36% 29.32 in 10.0 mi East 4.6 mph - N/A   Clear
5:55 PM 82.9 °F - 45.0 °F 26% 29.25 in 10.0 mi ESE 9.2 mph - N/A   Clear
6:55 PM 77.0 °F - 41.0 °F 28% 29.20 in 10.0 mi SSE 17.3 mph - N/A   Clear
7:55 PM 62.1 °F - 43.0 °F 50% 29.34 in 9.0 mi WNW 43.7 mph 61.0 mph N/A   Unknown
8:55 PM 57.0 °F - 42.1 °F 57% 29.42 in 10.0 mi WNW 24.2 mph 32.2 mph N/A   Clear
9:55 PM 54.0 °F - 39.9 °F 59% 29.48 in 10.0 mi West 10.4 mph - N/A   Clear
10:55 PM 53.1 °F - 32.0 °F 45% 29.51 in 10.0 mi SW 10.4 mph - N/A   Clear
11:55 PM 52.0 °F - 21.0 °F 30% 29.48 in 10.0 mi WSW 12.7 mph - N/A   Clear